Regional Weather Roundup
Issued by NWS

Home | Current Version | Previous Version | Text Only | Print | Product List | Glossary Off
Versions: 1 2 3 4 5 6 7 8 9 10 11 12 13 14 15 16 17 18 19 20 21 22 23 24 25 26 27

000
ASUS45 KBOU 281707
RWRCO

WEATHER ROUNDUP FOR COLORADO
NATIONAL WEATHER SERVICE DENVER/BOULDER CO
1100 AM MDT WED JUN 28 2017

NOTE: "FAIR" INDICATES FEW OR NO CLOUDS BELOW 12000 FEET WITH NO
SIGNIFICANT WEATHER AND/OR OBSTRUCTIONS TO VISIBILITY.

COZ001>005-013-030-031-281800-
...NORTHWEST COLORADO...

CITY           SKY/WX    TMP DP  RH WIND       PRES   REMARKS
CRAIG          FAIR      78  38  23 CALM      30.00F
HAYDEN         FAIR      73  36  25 SE5       30.02F
MEEKER         FAIR      77  37  23 S3        30.00F
RABBIT EARS PA FAIR      57  23  26 W7        30.30S
STEAMBOAT SPGS FAIR      69  43  39 CALM      30.04F
WALDEN         FAIR      68  28  22 W5        30.13S
$$

COZ006>008-011-281800-
...WEST CENTRAL VALLEYS...

CITY           SKY/WX    TMP DP  RH WIND       PRES   REMARKS
GRAND JUNCTION FAIR      85  30  13 S7        29.89F
MONTROSE       FAIR      79  30  16 N7        29.98S
EAGLE          SUNNY     72  34  25 CALM      30.04F
RIFLE          FAIR      80  29  15 E5        29.95F
DELTA          FAIR      85  25  11 CALM      29.94F
NUCLA          FAIR      84  18   8 W13       30.04S
$$

COZ017>023-064>068-281800-
...SOUTHWEST COLORADO...

CITY           SKY/WX    TMP DP  RH WIND       PRES   REMARKS
DURANGO        FAIR      76  19  11 VRB5      30.11F
CORTEZ         FAIR      82  19   9 VRB3      30.05S
PAGOSA SPRINGS FAIR      72   9   8 CALM      30.19S THUNDER
TELLURIDE      FAIR      70  19  14 W12G20    30.26S
WOLF CREEK PAS FAIR      54  18  24 S12       30.50S
$$

COZ009-010-012-014-032>034-037-058>063-281800-
...CENTRAL COLORADO...

CITY           SKY/WX    TMP DP  RH WIND       PRES   REMARKS
ASPEN          FAIR      72  36  26 N7        30.09F
BUENA VISTA    FAIR      72  23  16 SE7       30.12F
COPPER MTN     FAIR      59  23  25 W13G18    30.41S
BERTHOUD PASS  FAIR      50  36  57 MISG      30.41F
COTTONWOOD PAS FAIR      70  21  16 CALM      30.26F
GUNNISON       FAIR      67  27  22 SE5       30.13F
KREMMLING      FAIR      73  34  23 CALM      30.09F
LEADVILLE      FAIR      63  22  20 VRB6      30.23F
MONARCH PASS   FAIR      57  14  18 SW28G38   30.52F
SALIDA         FAIR      76  27  16 E7        30.15F
SUNLIGHT       FAIR      61  30  31 W5        30.35S
WILKERSON PASS FAIR      61  23  23 S7        30.39S
$$

COZ069>075-281800-
...SAN LUIS VALLEY/SANGRE DE CRISTO MOUNTAINS...

CITY           SKY/WX    TMP DP  RH WIND       PRES   REMARKS
ALAMOSA        FAIR      74  29  19 S9        30.12F
DEL NORTE      FAIR      72  25  17 E9        30.15F
LA VETA PASS   FAIR      66  21  18 S13G22    30.44S
SAGUACHE       FAIR      70  30  23 S10       30.15F
$$

COZ035-036-038>040-281800-
...NORTHERN COLORADO FRONT RANGE...

CITY           SKY/WX    TMP DP  RH WIND       PRES   REMARKS
DENVER INTL AP PTSUNNY   76  37  24 SE8       29.95F
DMNS CITY PARK   N/A     77  41  27 SE8G15    29.92F
AURORA         PTSUNNY   77  39  25 S6        29.96F
FRONT RANGE AP FAIR      77  37  24 E7G20     29.97F
ERIE MUNI ARPT FAIR      78  38  23 SE10      29.92F
BOULDER MUN AP FAIR      79  39  24 SE8       29.93S
CENTENNIAL     FAIR      79  37  22 S13       29.96F
BROOMFIELD     FAIR      73  37  27 S9G16     29.96F
FORT COLLINS   FAIR      78  44  29 S12G18    29.93F
LONGMONT       FAIR      81  40  23 SE6       29.94F
$$

COZ041-046-047-076>085-087-088-281800-
...PIKES PEAK/PALMER DIVIDE AND SOUTHERN FOOTHILLS...

CITY           SKY/WX    TMP DP  RH WIND       PRES   REMARKS
COLO. SPRINGS  FAIR      78  37  22 S12G25    30.03F
A. F. ACADEMY  FAIR      75  38  26 S12G20    30.03F
SCHRIEVER AFB  FAIR      75  36  24 S16       30.04F
CHEYENNE MTN   FAIR      74  34  23 SE22G31   29.99F
ELLICOTT       FAIR     N/A N/A N/A S8        30.02F
FALCON           N/A     76  32  20 S14G26    30.08S
FORT CARSON    FAIR      79  37  21 S18G24    29.99F
LIMON          FAIR      79  41  25 VRB5      29.97F
MONUMENT HILL  FAIR      75  36  23 SW13G20   30.07F
CANON CITY     SUNNY     81  39  22 CALM      29.98F
WALSENBURG     FAIR      81  37  21 SE9       30.02F
TRINIDAD       FAIR      79  39  23 CALM      30.02F
$$

COZ042>045-048>051-090-091-281800-
...NORTHEAST COLORADO...

CITY           SKY/WX    TMP DP  RH WIND       PRES   REMARKS
GREELEY ARPT   FAIR      78  45  30 S8        29.92F
AKRON          FAIR      78  40  25 W8        29.93S
BURLINGTON     FAIR      82  45  27 N10       29.89S
WRAY           FAIR      82  45  26 NW9       29.86F
YUMA           FAIR      77  37  24 W5        29.89S
STERLING       FAIR      79  45  29 SE3       29.88S
HOLYOKE        NOT AVBL
FORT MORGAN    FAIR      79  40  24 CALM      29.93F
$$

COZ086-089-092>099-281800-
...SOUTHEAST COLORADO...

CITY           SKY/WX    TMP DP  RH WIND       PRES   REMARKS
PUEBLO         FAIR      82  39  21 SE7       29.93F
LA JUNTA       FAIR      82  47  29 CALM      29.91F
LAMAR          FAIR      86  45  23 N9        29.86S
SPRINGFIELD      N/A     84  49  29 N18       29.90S
$$




USA.gov is the U.S. government's official web portal to all federal, state and local government web resources and services.